SCP
0 0 -0 0 -0 -0 -0 0 0 0 0 0 0 0 0 0 0 -0 0 -0 0 -0 -0 -0 0 0 -0 -0 -0 -0 -0 -0 0 -0 -0 -0 -0 -0 -0 -0 -0 -0 -0 -0 -0 -0 -0 -0 -0
0 0 0 0 -0 -0 -0 0 0 0 0 0 0 0 0 0 0 0 0 -0 0 0 -0 -0 -0 -0 -0 -0 -0 -0 -0 -0 -0 -0 -0 -0 -0 -0 -0 -0 -0 -0 -0 -0 -0 -0 -0 -0 -0
0 0 0 0 -0 0 0 0 0 0 0 0 0 0 0 0 0 0 0 0 0 0 -0 -0 -0 0 -0 -0 -0 -0 -0 -0 -0 -0 -0 -0 -0 -0 -0 -0 -0 -0 -0 -0 -0 -0 -0 -0 -0
0 0 0 -0 -0 0 0 0 0 0 0 0 0 0 0 0 0 0 0 0 0 0 -0 0 0 0 0 -0 -0 -0 -0 -0 -0 -0 -0 -0 -0 -0 -0 -0 -0 -0 -0 -0 -0 -0 -0 -0 -0
0 0 0 -0 0 0 0 0 0 0 0 0 0 0 0 -0 0 -0 0 0 0 0 -0 0 0 0 0 -0 -0 -0 -0 -0 -0 -0 -0 -0 -0 -0 -0 -0 -0 -0 -0 -0 -0 -0 -0 -0 -0
0 0 0 0 -0 0 0 0 -0 0 0 0 0 0 0 -0 -0 -0 -0 0 0 0 0 0 0 0 0 -0 -0 -0 -0 -0 -0 -0 -0 -0 -0 -0 -0 -0 -0 -0 -0 -0 -0 -0 -0 -0 -0
0 0 0 0 0 0 0 0 -0 -0 0 0 -0 0 0 0 0 -0 -0 -0 0 0 0 0 0 0 -0 -0 -0 -0 -0 -0 -0 -0 -0 -0 -0 -0 -0 -0 -0 -0 -0 -0 -0 -0 -0 -0 -0
0 0 0 0 0 0 -0 0 -0 -0 0 0 -0 -0 -0 0 -0 -0 -0 -0 -0 -0 0 0 0 0 0 -0 -0 -0 -0 -0 -0 -0 -0 -0 -0 -0 -0 -0 -0 -0 -0 -0 -0 -0 -0 -0 -0
0 0 0 0 0 0 0 0 0 0 -0 0 0 -0 -0 -0 -0 -0 0 0 -0 -0 -0 -0 -0 -0 -0 -0 -0 -0 -0 -0 -0 -0 -0 -0 0 -0 -0 -0 -0 -0 -0 -0 -0 -0 -0 -0 -0
0 0 0 0 0 0 0 -0 -0 -0 -0 0 -0 -0 -0 -0 -0 -0 -0 -0 -0 -0 -0 -0 -0 -0 -0 -0 -0 -0 -0 -0 -0 -0 -0 0 0 0 0 0 0 -0 -0 -0 -0 -0 0 0 0
0 0 0 0 0 0 -0 -0 0 -0 -0 -0 -0 -0 -0 -0 -0 -0 -0 -0 -0 -0 -0 -0 -0 -0 -0 -0 -0 -0 -0 -0 -0 -0 0 0 0 0 0 0 0 0 0 0 0 0 0 0 0
0 0 0 0 0 0 0 0 0 -0 -0 -0 -0 -0 -0 -0 -0 -0 -0 -0 -0 -0 -0 -0 -0 -0 -0 -0 -0 -0 -0 -0 0 0 0 0 0 0 0 0 0 0 0 0 0 0 0 0 0
0 0 0 0 0 0 0 0 0 0 -0 0 -0 -0 -0 -0 -0 -0 -0 -0 -0 -0 -0 -0 -0 -0 -0 -0 -0 -0 -0 -0 -0 0 0 0 0 0 0 0 0 0 0 0 0 0 0 0 0
0 0 0 0 0 0 0 0 0 0 -0 0 -0 -0 -0 -0 -0 -0 -0 -0 -0 -0 -0 -0 -0 -0 -0 -0 -0 -0 -0 -0 0 0 0 0 0 0 0 0 0 0 0 0 0 0 0 0 0
0 0 0 0 0 0 0 0 0 0 0 0 0 -0 0 -0 0 -0 -0 -0 -0 -0 -0 -0 -0 -0 -0 -0 -0 -0 0 0 0 0 0 0 0 0 0 0 0 0 0 0 0 0 0 0 0
0 0 0 0 0 0 0 0 0 0 0 0 0 0 0 -0 -0 -0 -0 -0 -0 -0 -0 -0 -0 -0 -0 -0 0 0 0 0 0 0 0 0 0 0 0 0 0 0 0 0 0 0 0 0 0
0 0 0 0 0 0 0 0 0 0 0 0 0 0 0 0 0 0 -0 -0 -0 -0 -0 -0 -0 -0 -0 0 0 0 0 0 0 0 0 0 0 0 0 0 0 0 0 0 0 0 0 0 0
0 0 0 0 0 0 0 0 0 0 0 0 0 0 0 0 0 0 -0 -0 -0 -0 -0 -0 0 0 -0 0 0 0 0 0 0 0 0 0 0 0 0 0 0 0 0 0 0 0 0 0 0
0 0 0 0 0 0 0 0 0 0 0 0 0 0 0 0 0 0 0 -0 -0 0 0 -0 0 0 0 0 0 0 0 0 0 0 0 0 0 0 0 0 0 0 0 0 0 0 0 0 0
0 0 0 0 0 0 0 0 0 0 0 0 0 0 0 0 0 -0 0 0 0 -0 -0 0 0 0 0 0 0 0 0 0 0 0 0 0 0 0 0 0 0 0 0 0 0 0 0 0 0
0 0 0 0 0 0 0 -0 0 0 0 0 0 0 0 0 0 0 0 0 0 0 0 0 0 0 0 0 0 0 0 0 0 0 0 0 0 0 0 0 0 0 0 0 0 0 0 0 0
0 0 0 0 0 0 0 -0 0 0 0 0 0 0 0 0 0 0 0 0 0 0 0 0 0 0 0 0 0 0 0 0 0 0 0 0 0 0 0 0 0 0 0 0 0 0 0 0 0
0 0 0 0 0 0 0 0 -0 0 0 0 0 0 0 0 0 0 0 0 0 0 0 0 0 0 0 0 0 0 0 0 0 0 0 0 0 0 0 0 0 0 0 0 0 0 0 0 0
0 0 0 0 0 0 0 0 -0 -0 -0 0 0 0 0 0 0 0 0 0 0 0 0 0 0 0 0 0 0 0 0 0 0 0 0 0 0 0 0 0 0 0 0 0 0 0 0 0 0
0 0 0 0 0 0 0 0 0 0 -0 0 0 0 0 0 0 0 0 0 0 0 0 0 0 0 0 0 0 0 0 0 0 0 0 0 0 0 0 0 0 0 0 0 0 0 0 0 0
0 0 0 0 0 0 0 0 0 0 0 0 0 0 0 0 0 0 0 0 0 0 0 0 0 0 0 0 0 0 0 0 0 0 0 0 0 0 0 0 0 0 0 0 0 0 0 0 0
0 0 0 0 0 0 0 0 0 0 0 0 0 0 0 0 0 0 0 0 0 0 0 0 0 0 0 0 0 0 0 0 0 0 0 0 0 0 0 0 0 0 0 0 0 0 0 0 0
0 0 0 0 0 0 0 0 0 0 0 0 0 0 0 0 0 0 0 0 0 0 0 0 0 0 0 0 0 0 0 0 0 0 0 0 0 0 0 0 0 0 0 0 0 0 0 0 0
0 0 0 0 0 0 0 0 0 0 0 0 0 0 0 0 0 0 0 0 0 0 0 0 0 0 0 0 0 0 0 0 0 0 0 0 0 0 0 0 0 0 0 0 0 0 0 0 0
0 0 0 0 0 0 0 0 0 0 0 0 0 0 0 0 0 0 0 0 0 0 -0 -0 -0 -0 -0 0 0 0 0 0 0 0 0 0 0 0 0 0 0 0 0 0 0 0 0 0 0
Wind_Speed_500mb
16 12 7 2 7 10 2 4 3 6 5 7 12 20 17 11 4 5 32 29 42 48 41 32 30 27 23 21 24 24 27 25 28 30 29 34 31 24 18 14 13 17 29 35 37 38 37 37 35
11 5 2 7 9 8 7 3 10 6 16 29 28 16 10 4 6 22 46 43 42 43 42 35 27 24 20 20 23 24 25 27 29 27 28 31 29 20 14 11 13 20 28 33 36 36 37 37 31
7 1 3 8 7 9 10 8 14 13 18 10 10 14 7 8 15 49 36 49 42 38 36 33 26 23 20 19 21 21 23 24 25 26 25 26 24 16 14 14 16 21 27 33 35 33 32 32 30
8 3 10 8 5 2 14 14 16 19 13 9 26 14 9 7 37 34 42 44 38 33 33 31 26 25 22 20 20 21 21 21 23 24 24 22 18 13 15 15 16 19 25 28 29 32 31 28 27
4 5 8 5 3 5 6 21 28 9 17 20 16 10 8 27 20 30 37 37 37 37 33 32 30 28 25 22 19 20 20 19 20 21 21 20 16 14 13 14 15 18 23 24 28 29 28 31 25
4 5 9 3 1 2 8 27 20 8 17 21 19 21 15 38 29 28 36 33 32 38 38 36 33 29 27 22 17 16 18 18 17 17 18 18 17 15 15 15 15 17 20 23 26 27 26 26 25
11 8 8 7 8 2 9 23 25 18 12 11 34 11 19 38 34 39 38 31 32 33 36 37 35 32 28 25 21 17 16 17 17 15 15 14 15 15 16 16 16 17 19 20 22 23 22 19 19
9 9 6 2 8 7 8 10 19 24 12 22 22 13 14 46 45 45 42 37 25 31 30 35 37 36 34 31 26 20 18 18 17 14 12 11 13 13 14 15 16 17 18 19 21 21 20 18 17
8 8 3 3 10 8 16 8 9 10 20 10 14 15 9 46 53 58 52 45 39 35 39 38 41 40 37 34 30 26 23 21 20 16 13 10 10 11 12 12 13 15 16 18 21 21 19 18 17
8 8 14 2 8 9 16 11 18 10 16 7 12 15 23 48 64 70 65 60 56 52 49 41 44 46 43 40 36 34 31 27 23 20 17 14 12 13 12 11 11 12 13 15 17 18 17 16 15
8 10 10 4 5 15 15 10 18 16 7 22 30 28 37 52 57 63 69 65 62 55 50 48 45 48 48 46 44 41 36 32 30 27 24 20 18 16 16 15 13 12 11 10 11 11 12 11 10
8 6 7 9 3 7 12 10 9 24 12 8 31 30 39 48 55 57 65 65 63 62 53 47 48 51 52 47 47 44 42 39 36 32 31 28 24 22 21 20 18 18 11 8 9 8 7 8 9
6 4 8 9 3 4 6 6 8 20 25 16 10 36 43 45 45 48 53 61 60 64 62 58 48 51 50 49 47 45 42 43 39 39 38 35 32 26 25 26 23 23 19 10 11 9 10 8 10
8 8 7 4 4 3 2 3 2 10 25 31 27 31 44 49 46 47 55 63 65 62 63 61 60 55 55 56 48 47 47 44 43 44 46 37 34 34 29 32 28 21 25 17 17 17 17 15 12
10 6 4 6 7 3 2 7 15 22 14 13 35 34 42 47 52 54 50 58 62 61 64 65 64 61 57 59 57 57 56 55 51 49 48 47 46 47 40 38 39 31 26 26 27 26 26 27 28
8 10 4 5 11 5 5 14 10 9 16 30 27 37 45 51 56 54 53 55 59 65 68 65 66 67 65 65 64 66 62 61 56 55 53 55 52 50 50 47 47 46 41 36 35 39 36 34 33
12 5 7 7 17 4 5 11 10 3 10 9 24 33 39 45 55 60 58 54 57 59 61 67 71 71 69 69 69 74 68 62 65 60 59 61 60 62 59 57 51 51 56 54 47 45 43 44 43
12 6 5 7 9 3 5 17 18 41 33 36 40 44 46 53 55 50 57 56 54 56 58 58 60 64 66 68 71 74 77 76 68 71 68 65 64 63 62 63 61 57 59 65 60 53 54 52 53
12 8 5 2 1 5 13 13 24 47 37 46 51 57 55 59 54 47 48 57 63 63 64 61 59 62 64 70 74 79 83 87 76 80 78 74 69 70 67 66 66 63 72 69 65 68 67 64 62
4 5 4 3 2 2 7 22 21 35 34 44 46 49 56 61 59 54 51 53 58 65 68 69 65 62 63 68 70 74 72 80 77 80 81 83 82 81 81 82 78 68 73 74 83 75 76 76 72
7 10 7 8 1 2 7 17 12 9 12 21 35 34 35 37 37 41 48 53 57 60 64 69 66 63 61 64 69 74 77 78 81 83 81 80 80 80 81 81 82 76 77 80 82 87 87 89 84
7 7 6 8 6 7 4 11 11 14 20 16 35 28 29 30 32 29 28 38 48 51 58 67 70 65 61 63 69 75 78 80 77 81 84 84 81 80 77 78 82 78 80 86 87 82 96 92 102
12 6 9 5 6 6 8 1 14 7 13 23 31 21 4 11 10 11 17 16 20 35 42 56 69 68 64 63 66 68 72 74 73 72 75 79 82 84 86 88 89 88 87 89 93 92 93 101 107
13 11 14 10 5 3 15 13 10 8 11 5 6 13 14 11 12 8 6 7 15 20 25 37 58 65 65 63 62 63 67 69 70 71 72 73 73 74 82 91 94 93 94 97 94 96 99 96 108
8 12 4 6 5 11 3 5 15 18 14 7 14 5 6 6 5 5 11 14 16 19 18 22 34 45 50 53 55 58 61 63 65 66 66 67 69 73 76 78 87 93 98 97 99 99 104 103 100
14 15 11 13 7 7 4 11 10 7 23 16 14 7 7 13 15 12 12 11 10 10 12 11 15 23 31 40 43 43 46 50 52 52 53 58 62 65 67 71 76 81 86 91 99 106 103 105 107
10 8 10 11 5 7 8 12 20 16 7 6 17 24 21 21 21 21 12 11 11 9 9 8 11 13 12 13 18 24 28 32 38 41 43 49 54 58 61 63 67 70 74 78 85 95 104 104 99
8 13 7 5 3 7 8 7 11 11 16 15 22 27 25 25 34 35 32 34 35 36 34 28 25 26 25 16 17 19 23 30 38 45 50 55 57 60 62 63 65 65 64 66 70 78 91 94 95
5 6 5 9 9 10 2 10 14 10 10 20 18 22 22 19 32 32 29 33 32 36 38 35 35 36 37 28 28 31 29 36 44 55 62 66 66 67 68 69 71 68 63 62 66 70 77 90 84
2 10 10 10 9 7 6 12 2 18 19 33 28 35 28 11 13 27 35 34 35 37 30 36 38 44 48 44 38 40 43 46 54 58 62 68 72 71 71 71 74 73 68 64 62 66 67 76 86
Wind_Direction_500mb
232 280 311 154 60 66 306 157 202 128 80 91 81 95 123 86 111 187 139 147 157 164 164 153 154 134 131 105 88 85 88 91 96 102 109 116 114 118 118 102 80 96 99 102 108 107 97 92 95
229 294 346 104 88 81 272 265 146 201 141 116 94 101 58 98 117 150 147 148 150 158 160 162 153 145 132 113 98 94 92 90 93 98 107 124 123 130 122 104 97 105 106 113 118 113 106 101 97
232 91 89 88 116 157 175 210 157 138 141 136 104 93 94 118 157 152 154 153 159 164 166 168 165 157 145 117 104 104 101 99 97 100 106 122 128 129 112 96 95 105 111 121 125 124 116 109 109
204 97 71 83 111 278 163 179 170 141 120 115 124 77 96 130 155 164 155 162 171 169 168 171 173 166 157 140 127 125 118 109 109 105 108 118 128 110 98 98 97 105 115 127 131 128 122 106 103
107 84 62 70 2 319 81 174 161 139 146 140 147 158 107 148 158 160 164 166 181 183 178 178 179 173 169 160 145 135 130 127 121 114 112 115 114 107 106 105 105 110 120 133 136 138 133 115 117
92 73 61 86 262 72 152 176 151 121 148 144 120 126 146 169 180 176 174 180 188 185 182 184 182 181 177 172 162 148 145 144 134 122 117 114 112 112 115 116 118 119 130 141 147 146 146 141 130
116 85 184 164 176 253 182 173 143 141 158 176 148 116 157 168 179 180 183 187 182 193 188 186 187 186 185 182 179 172 166 161 154 142 129 120 115 117 123 125 127 128 137 147 154 155 157 155 141
132 97 133 181 172 217 190 138 161 154 191 146 179 167 175 183 176 178 173 181 194 190 201 196 195 194 192 190 191 189 184 178 173 165 151 132 120 124 125 125 125 129 141 150 159 162 162 160 152
140 70 139 220 158 188 170 132 125 151 155 180 182 168 186 177 172 177 178 184 191 195 200 205 203 201 199 199 198 200 200 193 192 187 181 173 147 146 144 137 130 132 144 152 162 169 171 170 171
107 115 203 240 167 180 176 170 148 151 157 193 186 184 165 174 175 181 186 188 191 195 204 212 209 207 205 205 206 208 209 206 205 208 205 197 182 176 171 165 155 148 151 161 172 175 177 181 188
151 165 201 153 137 148 171 184 166 153 226 204 206 189 177 178 185 189 194 197 197 200 207 214 214 211 213 210 211 213 215 215 213 214 214 212 207 200 195 192 184 179 173 182 177 179 178 188 195
123 140 170 161 142 145 167 159 197 194 217 216 232 217 193 190 192 200 199 202 202 207 213 216 214 215 216 218 219 220 221 219 220 219 220 224 220 214 211 204 204 196 190 186 187 207 203 205 224
121 156 138 149 199 182 182 200 223 234 221 218 194 209 206 205 210 210 209 207 207 213 221 225 223 218 216 222 221 225 229 231 229 227 228 227 227 227 220 214 217 211 203 217 208 218 255 238 246
136 133 153 202 222 234 226 223 221 255 228 232 230 218 216 217 219 215 213 211 215 219 224 228 230 231 221 216 220 220 223 229 235 231 236 241 233 232 227 226 224 239 228 228 242 250 258 259 259
122 108 24 234 218 227 278 277 240 260 231 235 226 226 222 227 226 228 227 220 222 226 226 228 230 229 225 221 218 221 223 225 231 233 236 242 232 229 230 229 234 236 243 247 254 251 257 259 259
95 53 90 289 164 194 142 268 278 354 248 236 227 226 228 230 235 236 238 236 229 228 229 232 233 233 233 228 224 224 224 228 231 231 234 240 241 243 239 237 238 241 237 245 251 255 244 251 255
11 174 180 305 200 136 172 250 251 141 28 300 248 241 244 245 239 241 242 246 241 235 232 229 231 234 237 235 231 230 233 229 233 237 235 236 239 239 242 242 243 242 244 243 245 248 250 248 244
191 196 219 220 226 208 230 261 275 278 283 272 269 265 254 253 254 255 250 246 245 243 241 238 235 234 232 236 238 238 236 237 233 234 237 240 239 241 242 245 244 247 248 244 247 246 248 245 242
145 135 148 258 71 180 240 259 278 284 282 273 268 267 263 258 263 255 251 250 249 245 243 241 238 239 234 230 230 232 236 236 235 232 241 238 240 245 245 244 247 245 250 247 252 245 238 235 234
117 130 236 330 277 181 292 275 256 266 264 272 278 278 270 267 266 259 250 247 246 247 245 245 245 243 243 241 243 240 244 246 242 240 238 240 243 245 248 250 251 250 248 250 244 247 240 236 236
171 169 190 197 303 324 325 295 330 288 263 281 287 287 279 271 273 276 261 252 251 248 245 246 250 250 248 248 246 245 245 249 247 245 242 239 240 243 247 250 250 253 254 250 254 251 247 242 237
180 193 172 148 91 232 14 281 300 284 300 301 283 291 286 280 279 278 272 259 252 254 252 248 248 252 253 251 251 250 251 251 253 250 250 247 246 247 245 247 248 250 252 255 255 258 252 248 242
215 161 153 124 121 45 324 68 273 303 285 270 295 302 21 60 24 319 275 268 254 251 253 253 249 250 253 255 255 257 258 260 260 259 258 255 250 248 250 249 250 251 250 253 256 260 253 253 247
143 75 45 51 75 284 220 165 281 219 220 283 22 105 83 62 24 33 39 323 280 268 255 245 245 246 251 256 260 264 264 265 266 264 262 261 258 254 251 251 252 252 253 253 256 258 258 256 254
83 83 334 335 353 230 15 139 247 257 252 266 331 260 23 49 24 318 305 295 282 276 270 252 244 247 252 257 262 266 267 267 268 267 266 264 262 258 255 253 254 256 255 254 256 258 259 256 255
183 155 162 201 203 276 318 237 240 232 294 252 94 82 22 15 6 346 321 306 295 281 285 283 264 259 259 262 266 267 266 266 268 268 268 266 265 265 264 262 260 260 262 263 260 261 260 260 259
187 189 175 102 29 59 235 294 306 334 305 64 78 72 55 45 33 32 28 49 46 46 47 32 29 25 349 319 295 281 278 281 281 278 274 272 271 269 269 266 262 260 259 260 261 256 258 259 258
155 166 83 7 163 265 271 251 224 270 271 50 58 57 44 50 57 54 59 61 63 67 59 33 16 5 360 331 322 315 312 307 301 292 284 277 272 271 269 269 268 266 265 264 264 258 257 258 257
141 182 114 130 153 181 246 260 222 249 110 116 92 49 46 79 71 59 36 22 14 8 4 8 5 354 346 326 300 297 302 300 299 294 287 280 275 273 273 273 273 271 269 269 269 267 259 258 260
186 195 153 147 226 242 159 250 38 125 115 98 70 38 11 42 49 11 357 352 349 346 345 348 344 335 330 323 305 294 292 296 300 301 294 286 280 274 271 271 271 272 271 270 269 268 266 258 256
Wind_Speed_850mb
16 12 7 2 7 10 2 4 3 6 5 7 12 20 17 11 4 5 32 29 42 48 41 32 30 27 23 21 24 24 27 25 28 30 29 34 31 24 18 14 13 17 29 35 37 38 37 37 35
11 5 2 7 9 8 7 3 10 6 16 29 28 16 10 4 6 22 46 43 42 43 42 35 27 24 20 20 23 24 25 27 29 27 28 31 29 20 14 11 13 20 28 33 36 36 37 37 31
7 1 3 8 7 9 10 8 14 13 18 10 10 14 7 8 15 49 36 49 42 38 36 33 26 23 20 19 21 21 23 24 25 26 25 26 24 16 14 14 16 21 27 33 35 33 32 32 30
8 3 10 8 5 2 14 14 16 19 13 9 26 14 9 7 37 34 42 44 38 33 33 31 26 25 22 20 20 21 21 21 23 24 24 22 18 13 15 15 16 19 25 28 29 32 31 28 27
4 5 8 5 3 5 6 21 28 9 17 20 16 10 8 27 20 30 37 37 37 37 33 32 30 28 25 22 19 20 20 19 20 21 21 20 16 14 13 14 15 18 23 24 28 29 28 31 25
4 5 9 3 1 2 8 27 20 8 17 21 19 21 15 38 29 28 36 33 32 38 38 36 33 29 27 22 17 16 18 18 17 17 18 18 17 15 15 15 15 17 20 23 26 27 26 26 25
11 8 8 7 8 2 9 23 25 18 12 11 34 11 19 38 34 39 38 31 32 33 36 37 35 32 28 25 21 17 16 17 17 15 15 14 15 15 16 16 16 17 19 20 22 23 22 19 19
9 9 6 2 8 7 8 10 19 24 12 22 22 13 14 46 45 45 42 37 25 31 30 35 37 36 34 31 26 20 18 18 17 14 12 11 13 13 14 15 16 17 18 19 21 21 20 18 17
8 8 3 3 10 8 16 8 9 10 20 10 14 15 9 46 53 58 52 45 39 35 39 38 41 40 37 34 30 26 23 21 20 16 13 10 10 11 12 12 13 15 16 18 21 21 19 18 17
8 8 14 2 8 9 16 11 18 10 16 7 12 15 23 48 64 70 65 60 56 52 49 41 44 46 43 40 36 34 31 27 23 20 17 14 12 13 12 11 11 12 13 15 17 18 17 16 15
8 10 10 4 5 15 15 10 18 16 7 22 30 28 37 52 57 63 69 65 62 55 50 48 45 48 48 46 44 41 36 32 30 27 24 20 18 16 16 15 13 12 11 10 11 11 12 11 10
8 6 7 9 3 7 12 10 9 24 12 8 31 30 39 48 55 57 65 65 63 62 53 47 48 51 52 47 47 44 42 39 36 32 31 28 24 22 21 20 18 18 11 8 9 8 7 8 9
6 4 8 9 3 4 6 6 8 20 25 16 10 36 43 45 45 48 53 61 60 64 62 58 48 51 50 49 47 45 42 43 39 39 38 35 32 26 25 26 23 23 19 10 11 9 10 8 10
8 8 7 4 4 3 2 3 2 10 25 31 27 31 44 49 46 47 55 63 65 62 63 61 60 55 55 56 48 47 47 44 43 44 46 37 34 34 29 32 28 21 25 17 17 17 17 15 12
10 6 4 6 7 3 2 7 15 22 14 13 35 34 42 47 52 54 50 58 62 61 64 65 64 61 57 59 57 57 56 55 51 49 48 47 46 47 40 38 39 31 26 26 27 26 26 27 28
8 10 4 5 11 5 5 14 10 9 16 30 27 37 45 51 56 54 53 55 59 65 68 65 66 67 65 65 64 66 62 61 56 55 53 55 52 50 50 47 47 46 41 36 35 39 36 34 33
12 5 7 7 17 4 5 11 10 3 10 9 24 33 39 45 55 60 58 54 57 59 61 67 71 71 69 69 69 74 68 62 65 60 59 61 60 62 59 57 51 51 56 54 47 45 43 44 43
12 6 5 7 9 3 5 17 18 41 33 36 40 44 46 53 55 50 57 56 54 56 58 58 60 64 66 68 71 74 77 76 68 71 68 65 64 63 62 63 61 57 59 65 60 53 54 52 53
12 8 5 2 1 5 13 13 24 47 37 46 51 57 55 59 54 47 48 57 63 63 64 61 59 62 64 70 74 79 83 87 76 80 78 74 69 70 67 66 66 63 72 69 65 68 67 64 62
4 5 4 3 2 2 7 22 21 35 34 44 46 49 56 61 59 54 51 53 58 65 68 69 65 62 63 68 70 74 72 80 77 80 81 83 82 81 81 82 78 68 73 74 83 75 76 76 72
7 10 7 8 1 2 7 17 12 9 12 21 35 34 35 37 37 41 48 53 57 60 64 69 66 63 61 64 69 74 77 78 81 83 81 80 80 80 81 81 82 76 77 80 82 87 87 89 84
7 7 6 8 6 7 4 11 11 14 20 16 35 28 29 30 32 29 28 38 48 51 58 67 70 65 61 63 69 75 78 80 77 81 84 84 81 80 77 78 82 78 80 86 87 82 96 92 102
12 6 9 5 6 6 8 1 14 7 13 23 31 21 4 11 10 11 17 16 20 35 42 56 69 68 64 63 66 68 72 74 73 72 75 79 82 84 86 88 89 88 87 89 93 92 93 101 107
13 11 14 10 5 3 15 13 10 8 11 5 6 13 14 11 12 8 6 7 15 20 25 37 58 65 65 63 62 63 67 69 70 71 72 73 73 74 82 91 94 93 94 97 94 96 99 96 108
8 12 4 6 5 11 3 5 15 18 14 7 14 5 6 6 5 5 11 14 16 19 18 22 34 45 50 53 55 58 61 63 65 66 66 67 69 73 76 78 87 93 98 97 99 99 104 103 100
14 15 11 13 7 7 4 11 10 7 23 16 14 7 7 13 15 12 12 11 10 10 12 11 15 23 31 40 43 43 46 50 52 52 53 58 62 65 67 71 76 81 86 91 99 106 103 105 107
10 8 10 11 5 7 8 12 20 16 7 6 17 24 21 21 21 21 12 11 11 9 9 8 11 13 12 13 18 24 28 32 38 41 43 49 54 58 61 63 67 70 74 78 85 95 104 104 99
8 13 7 5 3 7 8 7 11 11 16 15 22 27 25 25 34 35 32 34 35 36 34 28 25 26 25 16 17 19 23 30 38 45 50 55 57 60 62 63 65 65 64 66 70 78 91 94 95
5 6 5 9 9 10 2 10 14 10 10 20 18 22 22 19 32 32 29 33 32 36 38 35 35 36 37 28 28 31 29 36 44 55 62 66 66 67 68 69 71 68 63 62 66 70 77 90 84
2 10 10 10 9 7 6 12 2 18 19 33 28 35 28 11 13 27 35 34 35 37 30 36 38 44 48 44 38 40 43 46 54 58 62 68 72 71 71 71 74 73 68 64 62 66 67 76 86
Wind_Direction_850mb
232 280 311 154 60 66 306 157 202 128 80 91 81 95 123 86 111 187 139 147 157 164 164 153 154 134 131 105 88 85 88 91 96 102 109 116 114 118 118 102 80 96 99 102 108 107 97 92 95
229 294 346 104 88 81 272 265 146 201 141 116 94 101 58 98 117 150 147 148 150 158 160 162 153 145 132 113 98 94 92 90 93 98 107 124 123 130 122 104 97 105 106 113 118 113 106 101 97
232 91 89 88 116 157 175 210 157 138 141 136 104 93 94 118 157 152 154 153 159 164 166 168 165 157 145 117 104 104 101 99 97 100 106 122 128 129 112 96 95 105 111 121 125 124 116 109 109
204 97 71 83 111 278 163 179 170 141 120 115 124 77 96 130 155 164 155 162 171 169 168 171 173 166 157 140 127 125 118 109 109 105 108 118 128 110 98 98 97 105 115 127 131 128 122 106 103
107 84 62 70 2 319 81 174 161 139 146 140 147 158 107 148 158 160 164 166 181 183 178 178 179 173 169 160 145 135 130 127 121 114 112 115 114 107 106 105 105 110 120 133 136 138 133 115 117
92 73 61 86 262 72 152 176 151 121 148 144 120 126 146 169 180 176 174 180 188 185 182 184 182 181 177 172 162 148 145 144 134 122 117 114 112 112 115 116 118 119 130 141 147 146 146 141 130
116 85 184 164 176 253 182 173 143 141 158 176 148 116 157 168 179 180 183 187 182 193 188 186 187 186 185 182 179 172 166 161 154 142 129 120 115 117 123 125 127 128 137 147 154 155 157 155 141
132 97 133 181 172 217 190 138 161 154 191 146 179 167 175 183 176 178 173 181 194 190 201 196 195 194 192 190 191 189 184 178 173 165 151 132 120 124 125 125 125 129 141 150 159 162 162 160 152
140 70 139 220 158 188 170 132 125 151 155 180 182 168 186 177 172 177 178 184 191 195 200 205 203 201 199 199 198 200 200 193 192 187 181 173 147 146 144 137 130 132 144 152 162 169 171 170 171
107 115 203 240 167 180 176 170 148 151 157 193 186 184 165 174 175 181 186 188 191 195 204 212 209 207 205 205 206 208 209 206 205 208 205 197 182 176 171 165 155 148 151 161 172 175 177 181 188
151 165 201 153 137 148 171 184 166 153 226 204 206 189 177 178 185 189 194 197 197 200 207 214 214 211 213 210 211 213 215 215 213 214 214 212 207 200 195 192 184 179 173 182 177 179 178 188 195
123 140 170 161 142 145 167 159 197 194 217 216 232 217 193 190 192 200 199 202 202 207 213 216 214 215 216 218 219 220 221 219 220 219 220 224 220 214 211 204 204 196 190 186 187 207 203 205 224
121 156 138 149 199 182 182 200 223 234 221 218 194 209 206 205 210 210 209 207 207 213 221 225 223 218 216 222 221 225 229 231 229 227 228 227 227 227 220 214 217 211 203 217 208 218 255 238 246
136 133 153 202 222 234 226 223 221 255 228 232 230 218 216 217 219 215 213 211 215 219 224 228 230 231 221 216 220 220 223 229 235 231 236 241 233 232 227 226 224 239 228 228 242 250 258 259 259
122 108 24 234 218 227 278 277 240 260 231 235 226 226 222 227 226 228 227 220 222 226 226 228 230 229 225 221 218 221 223 225 231 233 236 242 232 229 230 229 234 236 243 247 254 251 257 259 259
95 53 90 289 164 194 142 268 278 354 248 236 227 226 228 230 235 236 238 236 229 228 229 232 233 233 233 228 224 224 224 228 231 231 234 240 241 243 239 237 238 241 237 245 251 255 244 251 255
11 174 180 305 200 136 172 250 251 141 28 300 248 241 244 245 239 241 242 246 241 235 232 229 231 234 237 235 231 230 233 229 233 237 235 236 239 239 242 242 243 242 244 243 245 248 250 248 244
191 196 219 220 226 208 230 261 275 278 283 272 269 265 254 253 254 255 250 246 245 243 241 238 235 234 232 236 238 238 236 237 233 234 237 240 239 241 242 245 244 247 248 244 247 246 248 245 242
145 135 148 258 71 180 240 259 278 284 282 273 268 267 263 258 263 255 251 250 249 245 243 241 238 239 234 230 230 232 236 236 235 232 241 238 240 245 245 244 247 245 250 247 252 245 238 235 234
117 130 236 330 277 181 292 275 256 266 264 272 278 278 270 267 266 259 250 247 246 247 245 245 245 243 243 241 243 240 244 246 242 240 238 240 243 245 248 250 251 250 248 250 244 247 240 236 236
171 169 190 197 303 324 325 295 330 288 263 281 287 287 279 271 273 276 261 252 251 248 245 246 250 250 248 248 246 245 245 249 247 245 242 239 240 243 247 250 250 253 254 250 254 251 247 242 237
180 193 172 148 91 232 14 281 300 284 300 301 283 291 286 280 279 278 272 259 252 254 252 248 248 252 253 251 251 250 251 251 253 250 250 247 246 247 245 247 248 250 252 255 255 258 252 248 242
215 161 153 124 121 45 324 68 273 303 285 270 295 302 21 60 24 319 275 268 254 251 253 253 249 250 253 255 255 257 258 260 260 259 258 255 250 248 250 249 250 251 250 253 256 260 253 253 247
143 75 45 51 75 284 220 165 281 219 220 283 22 105 83 62 24 33 39 323 280 268 255 245 245 246 251 256 260 264 264 265 266 264 262 261 258 254 251 251 252 252 253 253 256 258 258 256 254
83 83 334 335 353 230 15 139 247 257 252 266 331 260 23 49 24 318 305 295 282 276 270 252 244 247 252 257 262 266 267 267 268 267 266 264 262 258 255 253 254 256 255 254 256 258 259 256 255
183 155 162 201 203 276 318 237 240 232 294 252 94 82 22 15 6 346 321 306 295 281 285 283 264 259 259 262 266 267 266 266 268 268 268 266 265 265 264 262 260 260 262 263 260 261 260 260 259
187 189 175 102 29 59 235 294 306 334 305 64 78 72 55 45 33 32 28 49 46 46 47 32 29 25 349 319 295 281 278 281 281 278 274 272 271 269 269 266 262 260 259 260 261 256 258 259 258
155 166 83 7 163 265 271 251 224 270 271 50 58 57 44 50 57 54 59 61 63 67 59 33 16 5 360 331 322 315 312 307 301 292 284 277 272 271 269 269 268 266 265 264 264 258 257 258 257
141 182 114 130 153 181 246 260 222 249 110 116 92 49 46 79 71 59 36 22 14 8 4 8 5 354 346 326 300 297 302 300 299 294 287 280 275 273 273 273 273 271 269 269 269 267 259 258 260
186 195 153 147 226 242 159 250 38 125 115 98 70 38 11 42 49 11 357 352 349 346 345 348 344 335 330 323 305 294 292 296 300 301 294 286 280 274 271 271 271 272 271 270 269 268 266 258 256